SQ6MTB Weather Reports


Display with metric or nautical units.
time (UTC)temp
F
wind
direction
speed
MPH
gust
MPH
rain 1hr
in
rain 24hr
in
rain mn
in
humidity
%
barometer
mb
20260902113055 69 242 5.0 10.0 0.00 0.00 0.00 60 1020.6
20260902112547 70 284 3.0 14.0 0.00 0.00 0.00 59 1020.7
20260902112029 70 236 8.0 14.0 0.00 0.00 0.00 57 1020.9
20260902111511 70 254 4.0 9.0 0.00 0.00 0.00 59 1020.8
20260902111023 70 290 5.0 9.0 0.00 0.00 0.00 59 1020.9
20260902110527 70 256 5.0 11.0 0.00 0.00 0.00 57 1021.0
20260902110035 70 260 6.0 11.0 0.00 0.00 0.00 58 1020.9
20260902105541 70 271 3.0 8.0 0.00 0.00 0.00 58 1020.9
20260902105028 70 257 5.0 11.0 0.00 0.00 0.00 59 1020.9
20260902104503 70 204 6.0 11.0 0.00 0.00 0.00 60 1020.8
20260902104009 70 207 2.0 10.0 0.00 0.00 0.00 60 1020.8
20260902103519 69 240 4.0 10.0 0.00 0.00 0.00 62 1020.7
20260902103025 69 226 3.0 9.0 0.00 0.00 0.00 62 1020.9
20260902102507 69 243 3.0 10.0 0.00 0.00 0.00 63 1020.8
20260902102048 69 248 6.0 10.0 0.00 0.00 0.00 62 1020.9
20260902101555 69 317 2.0 9.0 0.00 0.00 0.00 63 1021.0
20260902101008 68 314 5.0 8.0 0.00 0.00 0.00 64 1021.0
20260902100513 68 256 4.0 10.0 0.00 0.00 0.00 64 1021.1
20260902100049 68 294 2.0 11.0 0.00 0.00 0.00 64 1021.1
20260902095538 68 276 6.0 11.0 0.00 0.00 0.00 62 1021.0
20260902095045 68 269 3.0 10.0 0.00 0.00 0.00 64 1021.0
20260902094551 68 298 4.0 11.0 0.00 0.00 0.00 64 1021.2
20260902094053 68 219 6.0 12.0 0.00 0.00 0.00 65 1021.1
20260902094001 68 285 6.0 12.0 0.00 0.00 0.00 65 1021.1
20260902093535 68 254 6.0 12.0 0.00 0.00 0.00 64 1021.2
20260902093023 68 286 4.0 11.0 0.00 0.00 0.00 66 1021.0
20260902092526 67 306 2.0 5.0 0.00 0.00 0.00 68 1021.0
20260902092035 67 300 2.0 10.0 0.00 0.00 0.00 68 1021.1
20260902091546 66 239 3.0 10.0 0.00 0.00 0.00 68 1021.2
20260902091044 67 271 6.0 10.0 0.00 0.00 0.00 68 1021.3
20260902090527 67 258 3.0 7.0 0.00 0.00 0.00 67 1021.1
20260902090009 68 252 4.0 7.0 0.00 0.00 0.00 68 1021.2
20260902085518 68 276 1.0 5.0 0.00 0.00 0.00 70 1021.1
20260902085022 67 240 2.0 5.0 0.00 0.00 0.00 69 1021.1
20260902084531 67 262 1.0 7.0 0.00 0.00 0.00 72 1021.0
20260902084038 67 270 1.0 8.0 0.00 0.00 0.00 72 1021.1
20260902083540 67 259 4.0 8.0 0.00 0.00 0.00 72 1021.3
20260902083022 67 250 4.0 10.0 0.00 0.00 0.00 72 1021.3
20260902082503 67 286 3.0 9.0 0.00 0.00 0.00 72 1021.2
20260902082011 67 261 1.0 8.0 0.00 0.00 0.00 73 1021.3
20260902081522 67 273 3.0 8.0 0.00 0.00 0.00 72 1021.2
20260902081027 66 210 1.0 4.0 0.00 0.00 0.00 73 1021.1
20260902080533 66 128 1.0 5.0 0.00 0.00 0.00 73 1021.0
20260902080012 66 246 3.0 5.0 0.00 0.00 0.00 74 1020.9
20260902075556 65 283 0.0 7.0 0.00 0.00 0.00 77 1020.8
20260902075003 65 229 2.0 7.0 0.00 0.00 0.00 77 1020.9
20260902074511 64 265 1.0 8.0 0.00 0.00 0.00 78 1021.0
20260902074046 64 240 3.0 8.0 0.00 0.00 0.00 78 1021.0
20260902073526 64 152 1.0 4.0 0.00 0.00 0.00 80 1021.0
20260902073037 63 151 1.0 7.0 0.00 0.00 0.00 81 1020.9
20260902072547 63 250 3.0 7.0 0.00 0.00 0.00 83 1021.1
20260902072050 62 259 3.0 9.0 0.00 0.00 0.00 84 1020.9
20260902071557 61 257 3.0 9.0 0.00 0.00 0.00 85 1021.0
20260902071005 61 270 4.0 8.0 0.00 0.00 0.00 86 1021.0
20260902070510 60 260 5.0 8.0 0.00 0.00 0.00 87 1021.1
20260902070050 60 272 4.0 8.0 0.00 0.00 0.00 87 1021.1
20260902065502 60 257 3.0 9.0 0.00 0.00 0.00 87 1021.2
20260902065010 60 265 4.0 10.0 0.00 0.00 0.00 88 1021.1
20260902064519 59 264 7.0 10.0 0.00 0.00 0.00 88 1021.2
20260902064025 59 258 3.0 8.0 0.00 0.00 0.00 88 1021.2
20260902063532 59 306 4.0 8.0 0.00 0.00 0.00 88 1021.1
20260902063047 59 259 3.0 7.0 0.00 0.00 0.00 89 1021.1
20260902062549 59 238 3.0 9.0 0.00 0.00 0.00 89 1021.1
20260902062037 59 271 5.0 12.0 0.00 0.00 0.00 89 1021.1
20260902061548 59 267 5.0 12.0 0.00 0.00 0.00 90 1021.1
20260902061051 59 246 4.0 9.0 0.00 0.00 0.00 91 1021.0
20260902060555 58 248 5.0 10.0 0.00 0.00 0.00 91 1021.0
20260902060040 58 279 5.0 10.0 0.00 0.00 0.00 92 1021.0
20260902055548 58 211 5.0 8.0 0.00 0.00 0.00 92 1020.9
20260902055054 57 253 2.0 7.0 0.00 0.00 0.00 92 1020.8
20260902054538 57 243 1.0 8.0 0.00 0.00 0.00 92 1020.9
20260902054023 57 263 2.0 8.0 0.00 0.00 0.00 92 1020.9
20260902053530 57 221 3.0 8.0 0.00 0.00 0.00 92 1020.8
20260902053033 57 228 3.0 8.0 0.00 0.00 0.00 93 1020.7
20260902052512 57 221 3.0 9.0 0.00 0.00 0.00 93 1020.8
20260902052052 56 271 4.0 9.0 0.00 0.00 0.00 92 1020.7
20260902051502 56 248 2.0 5.0 0.00 0.00 0.00 92 1020.6
20260902051010 56 232 2.0 5.0 0.00 0.00 0.00 92 1020.6
20260902050524 56 265 0.0 5.0 0.00 0.00 0.00 92 1020.3
20260902050100 56 257 1.0 6.0 0.00 0.00 0.00 92 1020.4
20260902050008 56 239 1.0 6.0 0.00 0.00 0.00 92 1020.4
20260902045542 56 281 0.0 2.0 0.00 0.00 0.00 92 1020.4
20260902045050 56 257 0.0 6.0 0.00 0.00 0.00 92 1020.4
20260902044508 56 275 3.0 6.0 0.00 0.00 0.00 91 1020.4
20260902044013 56 218 0.0 0.0 0.00 0.00 0.00 91 1020.2
20260902043550 56 237 0.0 0.0 0.00 0.00 0.00 91 1020.1
20260902043119 56 246 0.0 0.0 0.00 0.00 0.00 91 1020.2
20260902042510 56 278 0.0 4.0 0.00 0.00 0.00 91 1020.3
20260902042021 57 236 0.0 7.0 0.00 0.00 0.00 91 1020.2
20260902041555 57 252 3.0 7.0 0.00 0.00 0.00 90 1020.2
20260902041040 57 267 2.0 7.0 0.00 0.00 0.00 90 1020.2
20260902040545 57 202 0.0 4.0 0.00 0.00 0.00 90 1020.2
20260902040026 57 240 1.0 5.0 0.00 0.00 0.00 90 1020.1
20260902035513 57 255 0.0 5.0 0.00 0.00 0.00 89 1020.1
20260902035048 57 259 1.0 4.0 0.00 0.00 0.00 89 1020.1
20260902034556 57 219 0.0 4.0 0.00 0.00 0.00 88 1020.0
20260902034012 58 215 0.0 3.0 0.00 0.00 0.00 88 1020.0
20260902033514 58 220 0.0 4.0 0.00 0.00 0.00 88 1020.0
20260902033050 58 227 0.0 4.0 0.00 0.00 0.00 87 1020.0
20260902032539 58 248 1.0 4.0 0.00 0.00 0.00 87 1020.0
20260902032045 58 262 0.0 7.0 0.00 0.00 0.00 87 1020.0
20260902031552 58 229 1.0 7.0 0.00 0.00 0.00 87 1020.0
20260902031054 58 227 3.0 7.0 0.00 0.00 0.00 87 1019.9
20260902031006 58 223 3.0 7.0 0.00 0.00 0.00 87 1019.9
20260902030526 59 227 1.0 7.0 0.00 0.00 0.00 86 1019.9
20260902030008 59 272 0.0 4.0 0.00 0.00 0.00 86 1020.0
20260902025548 59 215 0.0 4.0 0.00 0.00 0.00 85 1019.9
20260902025100 59 273 1.0 7.0 0.00 0.00 0.00 85 1019.9
20260902024506 59 236 2.0 7.0 0.00 0.00 0.00 85 1020.0
20260902024044 59 234 2.0 5.0 0.00 0.00 0.00 85 1019.9
20260902023526 59 217 2.0 6.0 0.00 0.00 0.00 84 1019.9
20260902023036 59 232 1.0 6.0 0.00 0.00 0.00 84 1019.9
20260902022545 59 267 2.0 7.0 0.00 0.00 0.00 84 1019.9
20260902022049 60 249 4.0 7.0 0.00 0.00 0.00 84 1019.9
20260902021531 60 255 3.0 8.0 0.00 0.00 0.00 84 1019.8
20260902021012 60 266 4.0 8.0 0.00 0.00 0.00 83 1019.8
20260902020520 60 263 3.0 9.0 0.00 0.00 0.00 83 1019.9
20260902020030 60 277 3.0 8.0 0.00 0.00 0.00 83 1019.9
20260902015536 60 267 4.0 8.0 0.00 0.00 0.00 83 1019.8
20260902015044 60 267 4.0 8.0 0.00 0.00 0.00 83 1019.8
20260902014530 60 252 3.0 8.0 0.00 0.00 0.00 83 1019.8
20260902014039 60 265 3.0 8.0 0.00 0.00 0.00 83 1019.7
20260902013546 60 285 3.0 8.0 0.00 0.00 0.00 83 1019.7
20260902013051 60 277 3.0 8.0 0.00 0.00 0.00 82 1019.7
20260902012535 60 233 2.0 8.0 0.00 0.00 0.00 82 1019.6
20260902012016 60 254 4.0 7.0 0.00 0.00 0.00 82 1019.7
20260902011522 60 234 3.0 7.0 0.00 0.00 0.00 82 1019.7
20260902011031 60 231 3.0 7.0 0.00 0.00 0.00 82 1019.7
20260902010539 60 284 2.0 5.0 0.00 0.00 0.00 82 1019.7
20260902010026 60 227 2.0 6.0 0.00 0.00 0.00 82 1019.8
20260902005530 60 238 3.0 8.0 0.00 0.00 0.00 82 1019.8
20260902005038 61 277 3.0 8.0 0.00 0.00 0.00 82 1019.8
20260902004525 61 228 3.0 10.0 0.00 0.00 0.00 82 1019.8
20260902004054 61 237 4.0 10.0 0.00 0.00 0.00 82 1019.9
20260902003556 61 223 3.0 8.0 0.00 0.00 0.00 82 1019.8
20260902003040 61 269 4.0 8.0 0.00 0.00 0.00 82 1019.8
20260902002551 61 240 4.0 9.0 0.00 0.00 0.00 82 1019.8
20260902002054 61 246 4.0 10.0 0.00 0.00 0.00 82 1019.8
20260902001536 61 257 5.0 11.0 0.00 0.00 0.00 82 1019.9
20260902001018 60 282 6.0 11.0 0.00 0.00 0.00 82 1019.9
20260902000529 60 262 3.0 12.0 0.00 0.00 0.00 83 1020.0
20260902000040 60 254 4.0 12.0 0.00 0.00 0.00 83 1019.9
20260901235519 60 220 6.0 14.0 0.00 0.00 0.00 83 1019.9
20260901235100 60 262 7.0 12.0 0.00 0.00 0.00 83 1019.8
20260901234510 60 256 6.0 11.0 0.00 0.00 0.00 83 1019.8
20260901234018 60 234 6.0 11.0 0.00 0.00 0.00 83 1019.8
20260901233530 60 285 4.0 9.0 0.00 0.00 0.00 83 1019.8
20260901233034 60 240 3.0 7.0 0.00 0.00 0.00 84 1019.7
20260901232516 60 252 0.0 6.0 0.00 0.00 0.00 84 1019.6
20260901232028 60 269 1.0 4.0 0.00 0.00 0.00 84 1019.5
20260901231541 60 273 1.0 5.0 0.00 0.00 0.00 84 1019.6
20260901231049 60 222 2.0 7.0 0.00 0.00 0.00 83 1019.5
20260901230553 60 237 3.0 7.0 0.00 0.00 0.00 83 1019.6
20260901230037 60 228 3.0 7.0 0.00 0.00 0.00 83 1019.6
20260901225546 60 229 2.0 7.0 0.00 0.00 0.00 83 1019.5
20260901225051 60 219 3.0 7.0 0.00 0.00 0.00 82 1019.6
20260901224601 60 265 1.0 4.0 0.00 0.00 0.00 82 1019.5
20260901224502 60 245 2.0 4.0 0.00 0.00 0.00 82 1019.5
20260901224013 61 229 1.0 4.0 0.00 0.00 0.00 82 1019.6
20260901223552 61 232 1.0 8.0 0.00 0.00 0.00 81 1019.5
20260901223058 61 238 3.0 8.0 0.00 0.00 0.00 81 1019.5
20260901222508 61 239 2.0 8.0 0.00 0.00 0.00 81 1019.5
20260901222013 61 211 3.0 9.0 0.00 0.00 0.00 80 1019.5
20260901221609 62 221 3.0 9.0 0.00 0.00 0.00 80 1019.6
20260901221031 62 240 2.0 7.0 0.00 0.00 0.00 80 1019.6
20260901220544 62 231 3.0 7.0 0.00 0.00 0.00 79 1019.6
20260901220101 62 245 4.0 7.0 0.00 0.00 0.00 79 1019.5
20260901215556 62 276 3.0 8.0 0.00 0.00 0.00 79 1019.6
20260901215008 62 252 3.0 7.0 0.00 0.00 0.00 79 1019.6
20260901214543 62 245 2.0 7.0 0.00 0.00 0.00 79 1019.5
20260901214025 62 260 3.0 8.0 0.00 0.00 0.00 79 1019.6
20260901213533 62 247 3.0 8.0 0.00 0.00 0.00 79 1019.5
20260901213100 62 212 3.0 8.0 0.00 0.00 0.00 79 1019.6
20260901212547 62 278 2.0 5.0 0.00 0.00 0.00 79 1019.6
20260901212030 62 275 0.0 5.0 0.00 0.00 0.00 79 1019.6
20260901211514 62 250 2.0 9.0 0.00 0.00 0.00 79 1019.6
20260901211020 62 236 4.0 9.0 0.00 0.00 0.00 79 1019.5
20260901210530 61 249 3.0 9.0 0.00 0.00 0.00 79 1019.5
20260901210037 61 265 4.0 9.0 0.00 0.00 0.00 80 1019.5
20260901205518 61 242 3.0 8.0 0.00 0.00 0.00 81 1019.5
20260901205057 60 235 2.0 5.0 0.00 0.00 0.00 81 1019.4
20260901204516 60 248 0.0 3.0 0.00 0.00 0.00 81 1019.4
20260901204019 60 219 0.0 4.0 0.00 0.00 0.00 81 1019.4
20260901203528 60 242 1.0 4.0 0.00 0.00 0.00 81 1019.4
20260901203035 60 249 0.0 0.0 0.00 0.00 0.00 81 1019.2
20260901202520 60 249 0.0 0.0 0.00 0.00 0.00 80 1019.2
20260901202027 60 249 0.0 0.0 0.00 0.00 0.00 80 1019.1
20260901201545 60 251 0.0 3.0 0.00 0.00 0.00 80 1019.2
20260901201047 60 238 0.0 3.0 0.00 0.00 0.00 79 1019.2
20260901200530 61 248 0.0 1.0 0.00 0.00 0.00 79 1019.1
20260901195552 61 217 0.0 0.0 0.00 0.00 0.00 79 1019.1
20260901195100 61 217 0.0 0.0 0.00 0.00 0.00 78 1019.1
20260901195007 61 217 0.0 0.0 0.00 0.00 0.00 78 1019.1
20260901194558 61 236 0.0 0.0 0.00 0.00 0.00 78 1019.2
20260901194054 61 236 0.0 0.0 0.00 0.00 0.00 78 1019.2
20260901193503 61 179 0.0 0.0 0.00 0.00 0.00 78 1019.2
20260901193013 61 172 0.0 0.0 0.00 0.00 0.00 77 1019.3
20260901192559 61 222 0.0 0.0 0.00 0.00 0.00 77 1019.2
20260901192009 61 246 0.0 0.0 0.00 0.00 0.00 77 1019.2
20260901191526 61 246 0.0 0.0 0.00 0.00 0.00 76 1019.4
20260901191025 62 164 0.0 0.0 0.00 0.00 0.00 76 1019.2
20260901190507 62 187 0.0 0.0 0.00 0.00 0.00 76 1019.3
20260901190022 62 187 0.0 3.0 0.00 0.00 0.00 76 1019.2
20260901185528 62 226 0.0 3.0 0.00 0.00 0.00 76 1019.1
20260901185033 62 215 0.0 3.0 0.00 0.00 0.00 76 1019.1
20260901184515 62 213 0.0 4.0 0.00 0.00 0.00 76 1019.1
20260901184024 62 225 0.0 4.0 0.00 0.00 0.00 76 1019.1
20260901183529 62 263 0.0 0.0 0.00 0.00 0.00 77 1019.1
20260901183047 61 225 0.0 0.0 0.00 0.00 0.00 76 1019.0
20260901182521 61 193 0.0 0.0 0.00 0.00 0.00 76 1018.9
20260901182030 61 193 0.0 0.0 0.00 0.00 0.00 76 1018.9
20260901181519 61 193 0.0 0.0 0.00 0.00 0.00 76 1018.8
20260901181053 61 193 0.0 0.0 0.00 0.00 0.00 76 1018.8
20260901180503 62 193 0.0 0.0 0.00 0.00 0.00 75 1018.8
20260901180011 62 193 0.0 0.0 0.00 0.00 0.00 75 1018.8
20260901175557 62 193 0.0 0.0 0.00 0.00 0.00 75 1018.8
20260901175005 62 193 0.0 0.0 0.00 0.00 0.00 74 1018.8
20260901174514 62 194 0.0 0.0 0.00 0.00 0.00 74 1018.8
20260901174021 62 194 0.0 0.0 0.00 0.00 0.00 74 1018.8
20260901173505 63 261 0.0 0.0 0.00 0.00 0.00 73 1018.7
20260901173013 63 261 0.0 3.0 0.00 0.00 0.00 73 1018.7
20260901172519 63 261 0.0 3.0 0.00 0.00 0.00 73 1018.7
20260901172029 63 260 0.0 4.0 0.00 0.00 0.00 72 1018.8
20260901171510 63 288 1.0 4.0 0.00 0.00 0.00 72 1018.7
20260901171051 63 285 0.0 6.0 0.00 0.00 0.00 72 1018.8
20260901170559 63 29 1.0 9.0 0.00 0.00 0.00 71 1018.7
20260901170501 63 341 2.0 9.0 0.00 0.00 0.00 71 1018.7
20260901170009 64 327 4.0 13.0 0.00 0.00 0.00 70 1018.8
20260901165515 65 343 4.0 14.0 0.00 0.00 0.00 69 1018.9
20260901165023 67 299 6.0 16.0 0.00 0.00 0.00 68 1018.9
20260901164617 69 309 5.0 20.0 0.00 0.00 0.00 66 1018.9
20260901164506 69 325 5.0 20.0 0.00 0.00 0.00 65 1018.9
20260901164039 70 269 8.0 16.0 0.00 0.00 0.00 60 1018.7
20260901163514 70 288 6.0 16.0 0.00 0.00 0.00 61 1018.4
20260901163021 71 239 8.0 13.0 0.00 0.00 0.00 62 1018.4
20260901162529 71 233 6.0 14.0 0.00 0.00 0.00 61 1018.3
20260901162011 71 234 8.0 14.0 0.00 0.00 0.00 61 1018.3
20260901161553 71 250 7.0 12.0 0.00 0.00 0.00 61 1018.3
20260901161059 72 228 6.0 10.0 0.00 0.00 0.00 61 1018.3
20260901161002 72 236 3.0 9.0 0.00 0.00 0.00 61 1018.3
20260901160508 71 233 3.0 10.0 0.00 0.00 0.00 61 1018.2
20260901160015 71 255 6.0 10.0 0.00 0.00 0.00 60 1018.1
20260901155557 71 244 5.0 11.0 0.00 0.00 0.00 61 1018.1
20260901155007 71 274 6.0 11.0 0.00 0.00 0.00 60 1018.1
20260901154514 71 275 6.0 11.0 0.00 0.00 0.00 60 1018.2
20260901154024 72 232 7.0 12.0 0.00 0.00 0.00 59 1018.0
20260901153532 72 213 6.0 11.0 0.00 0.00 0.00 59 1018.0
20260901153041 72 204 5.0 13.0 0.00 0.00 0.00 59 1018.1
20260901152525 72 291 5.0 14.0 0.00 0.00 0.00 59 1018.1
20260901152039 72 333 7.0 17.0 0.00 0.00 0.00 59 1018.1
20260901151545 72 242 11.0 17.0 0.00 0.00 0.00 58 1018.1
20260901151049 72 224 6.0 17.0 0.00 0.00 0.00 60 1018.1
20260901150553 72 229 6.0 17.0 0.00 0.00 0.00 59 1018.2
20260901150047 72 249 6.0 11.0 0.00 0.00 0.00 58 1018.2
20260901145550 72 294 7.0 11.0 0.00 0.00 0.00 59 1018.2
20260901145050 72 247 6.0 13.0 0.00 0.00 0.00 59 1018.2
20260901144539 72 230 7.0 13.0 0.00 0.00 0.00 58 1018.3
20260901144014 72 260 5.0 12.0 0.00 0.00 0.00 58 1018.3
20260901143521 72 259 6.0 19.0 0.00 0.00 0.00 58 1018.3
20260901143029 72 273 9.0 20.0 0.00 0.00 0.00 58 1018.3
20260901142510 71 238 9.0 20.0 0.00 0.00 0.00 59 1018.4
20260901142052 71 186 9.0 19.0 0.00 0.00 0.00 59 1018.3
20260901141612 71 256 10.0 18.0 0.00 0.00 0.00 59 1018.4
20260901141502 72 258 11.0 18.0 0.00 0.00 0.00 59 1018.4
20260901141005 71 231 8.0 19.0 0.00 0.00 0.00 59 1018.5
20260901140512 72 238 9.0 17.0 0.00 0.00 0.00 59 1018.5
20260901140023 72 244 7.0 16.0 0.00 0.00 0.00 59 1018.4
20260901135600 71 261 7.0 16.0 0.00 0.00 0.00 59 1018.4
20260901135506 71 271 7.0 16.0 0.00 0.00 0.00 59 1018.4
20260901135043 71 247 9.0 16.0 0.00 0.00 0.00 59 1018.4
20260901134551 71 225 6.0 16.0 0.00 0.00 0.00 59 1018.4
20260901134052 71 301 9.0 15.0 0.00 0.00 0.00 60 1018.6
20260901133535 71 280 9.0 16.0 0.00 0.00 0.00 59 1018.6
20260901133017 71 222 7.0 16.0 0.00 0.00 0.00 59 1018.6
20260901132529 71 254 6.0 18.0 0.00 0.00 0.00 61 1018.7
20260901132035 70 278 10.0 18.0 0.00 0.00 0.00 60 1018.8
20260901131546 69 254 7.0 15.0 0.00 0.00 0.00 63 1018.8
20260901131049 69 284 9.0 13.0 0.00 0.00 0.00 63 1018.7
20260901130531 68 263 8.0 15.0 0.00 0.00 0.00 63 1018.7
20260901130012 69 260 7.0 15.0 0.00 0.00 0.00 62 1018.7
20260901125520 69 249 10.0 17.0 0.00 0.00 0.00 61 1018.7
20260901125027 69 269 9.0 17.0 0.00 0.00 0.00 60 1018.8
20260901124533 70 280 9.0 21.0 0.00 0.00 0.00 59 1018.8
20260901124048 70 265 10.0 21.0 0.00 0.00 0.00 58 1018.7
20260901123548 71 269 10.0 18.0 0.00 0.00 0.00 58 1018.7
20260901123033 71 271 9.0 18.0 0.00 0.00 0.00 59 1018.7
20260901122544 70 273 5.0 15.0 0.00 0.00 0.00 62 1018.7
20260901122048 69 242 6.0 13.0 0.00 0.00 0.00 62 1018.8
20260901121604 69 242 7.0 13.0 0.00 0.00 0.00 62 1018.8
20260901121008 69 5 8.0 14.0 0.00 0.00 0.00 62 1018.9
20260901120543 70 272 9.0 16.0 0.00 0.00 0.00 61 1019.0
20260901120023 70 215 9.0 17.0 0.00 0.00 0.00 60 1019.0
20260901115531 71 276 10.0 15.0 0.00 0.00 0.00 59 1019.0
20260901115035 71 266 6.0 14.0 0.00 0.00 0.00 60 1018.9
20260901114543 71 250 8.0 17.0 0.00 0.00 0.00 60 1019.0
20260901114024 70 223 8.0 15.0 0.00 0.00 0.00 61 1019.0
20260901113508 70 257 7.0 18.0 0.00 0.00 0.00 61 1018.9